GFSCGP_700_temp_276.txt.gz
Temp
4 4 4 4 4 4 4 3 3 3 3 4 4 5 5 3 3 3 3 2 2 1 0 -0 -1 -1 -1 -1 -1 -2 -2 -2 -2 -1 0 1 2 2 2 2 1 1 1 -0
3 3 3 3 3 3 3 3 3 3 2 2 3 6 5 5 4 3 2 2 1 0 -0 -0 -1 -1 -1 -2 -2 -2 -2 -1 -1 -1 -0 -0 1 1 1 1 0 1 1 1
3 3 3 3 3 3 3 3 2 2 2 2 2 5 6 5 4 2 2 2 1 0 -0 -1 -1 -2 -2 -3 -2 -1 -1 -1 -1 -0 0 0 0 1 0 -0 -0 -0 -0 -1
3 3 3 2 2 2 2 2 2 1 -0 -0 -0 -2 4 3 3 2 2 1 0 0 -1 -1 -2 -2 -3 -2 -1 -1 -1 -1 -1 -1 -1 -1 -0 -0 -1 -1 -1 -1 -1 -1
3 3 2 2 2 2 2 2 2 1 -1 -2 -2 -2 4 3 2 3 2 1 0 -0 -1 -1 -2 -3 -2 -1 -1 -1 -0 -1 -1 -2 -2 -2 -2 -2 -2 -2 -1 -2 -2 -1
2 2 2 2 1 1 1 1 1 -1 -3 -8 -3 -2 2 3 3 2 1 0 -0 -0 -1 -2 -3 -2 -1 -1 -1 -0 -1 -1 -1 -1 -1 -2 -2 -3 -2 -3 -2 -2 -2 -2
1 1 1 1 0 0 0 0 -5 -6 -8 -7 -3 -4 4 3 3 2 1 0 -0 -0 -1 -2 -2 -2 -1 -1 -0 -0 -1 -1 -1 -1 -2 -3 -3 -3 -3 -3 -3 -3 -3 -3
2 0 1 1 0 -0 -0 0 -1 -6 -8 -8 -4 -5 4 3 2 1 1 0 -0 -0 -1 -2 -2 -2 -1 -1 -1 -0 -1 -1 -1 -2 -3 -3 -3 -4 -4 -4 -4 -4 -4 -4
1 1 1 0 -0 -1 -1 -1 -1 -2 -8 -9 -3 0 3 3 2 2 1 -0 -1 -1 -1 -2 -2 -1 -1 -1 -1 -1 -2 -1 -2 -2 -3 -3 -4 -4 -4 -5 -5 -6 -6 -6
1 1 -0 -1 -1 -1 -1 -1 -2 -2 -7 -8 -5 -3 3 3 2 1 -0 -1 -2 -2 -2 -2 -2 -2 -1 -1 -1 -2 -2 -2 -2 -3 -4 -4 -4 -4 -5 -5 -6 -7 -8 -8
1 1 -1 -2 -1 -1 -1 -2 -2 -2 -3 -10 -13 -2 2 2 2 0 -1 -2 -3 -1 -2 -2 -2 -2 -2 -2 -2 -3 -2 -3 -3 -3 -4 -4 -5 -6 -7 -6 -7 -8 -9 -9
0 -0 -1 -1 -1 -1 -2 -2 -2 -1 -5 -5 -8 -3 3 2 1 0 -2 -2 -1 -1 -2 -2 -2 -2 -2 -3 -3 -3 -3 -3 -3 -4 -4 -6 -6 -7 -7 -7 -7 -8 -9 -9
-0 -1 -1 -2 -3 -2 -2 -1 -2 -2 -3 -3 -8 -2 2 2 0 -1 -1 -1 -1 -1 -2 -2 -2 -2 -3 -3 -3 -4 -4 -4 -4 -4 -4 -5 -6 -7 -7 -7 -7 -7 -8 -9
-1 -1 -0 -1 0 -0 -1 -0 -1 -3 -4 -3 -2 1 3 2 0 -0 -0 -0 -1 -2 -2 -2 -2 -3 -3 -4 -3 -4 -4 -4 -4 -4 -4 -5 -6 -6 -6 -6 -6 -7 -7 -8
-3 -2 -1 -1 -1 -1 -1 -1 -2 -2 -2 -3 1 -1 3 1 0 0 0 -0 -1 -2 -2 -2 -2 -3 -3 -4 -4 -4 -5 -5 -4 -3 -4 -5 -5 -6 -6 -6 -6 -6 -6 -7
-5 -3 -2 -1 -1 -2 -2 -1 -1 -1 -2 -2 -1 0 1 0 -0 -0 -1 -1 -1 -2 -2 -2 -2 -3 -3 -4 -4 -4 -5 -5 -5 -4 -4 -5 -6 -5 -6 -6 -6 -6 -6 -6
-4 -4 -3 -3 -2 -3 -3 1 1 1 1 1 0 2 0 0 -0 -1 -1 -1 -2 -2 -2 -2 -3 -3 -3 -4 -4 -4 -4 -5 -6 -6 -5 -5 -5 -5 -5 -5 -5 -6 -6 -6
-6 -4 -4 -4 -4 -7 -0 0 0 1 1 1 2 1 0 -0 -0 -1 -1 -1 -2 -2 -3 -3 -3 -3 -4 -4 -4 -5 -5 -5 -6 -6 -5 -5 -5 -6 -6 -6 -5 -5 -5 -5
-7 -6 -5 -4 -5 -2 0 0 1 1 2 2 2 1 0 -1 -0 -1 -1 -1 -2 -2 -3 -3 -3 -3 -4 -4 -5 -5 -5 -6 -6 -6 -6 -6 -6 -6 -6 -7 -6 -6 -5 -6
-6 -7 -7 -7 -7 -9 0 0 -0 0 1 1 1 -0 -1 -1 -1 -1 -2 -2 -2 -3 -3 -3 -3 -3 -3 -4 -5 -5 -6 -6 -6 -6 -6 -6 -6 -6 -6 -7 -7 -7 -7 -6
-8 -9 -8 -8 -6 -5 0 -1 -1 -2 1 0 -0 -1 -1 -1 -1 -1 -2 -2 -2 -3 -3 -3 -3 -3 -3 -4 -4 -5 -5 -6 -6 -5 -6 -6 -6 -6 -6 -7 -8 -8 -7 -7
-2 -4 -7 -9 -9 -8 0 -1 -2 0 -0 -1 -1 -1 -1 -1 -1 -1 -2 -3 -2 -3 -3 -3 -3 -4 -4 -4 -4 -5 -5 -6 -6 -6 -6 -6 -6 -6 -6 -7 -6 -7 -7 -7
-4 -2 -2 -2 -0 0 -0 -0 -0 -0 -0 -1 -2 -1 -2 -2 -1 -1 -2 -2 -2 -2 -3 -3 -3 -4 -4 -4 -4 -5 -5 -6 -6 -6 -6 -6 -6 -6 -6 -6 -6 -6 -6 -7
-3 -2 -3 -2 -0 -1 -1 -1 -1 -1 -2 -2 -2 -2 -2 -2 -1 -1 -1 -2 -2 -2 -2 -3 -3 -4 -4 -4 -4 -5 -5 -5 -6 -6 -6 -6 -6 -6 -6 -6 -6 -6 -7 -6
-3 -3 -2 -2 -1 -1 -1 -2 -1 -1 -2 -2 -2 -2 -2 -2 -1 -1 -2 -2 -2 -2 -2 -3 -3 -4 -4 -4 -4 -4 -5 -5 -6 -6 -6 -6 -6 -7 -7 -7 -7 -7 -7 -7
-4 -3 -2 -1 -1 -1 -1 -1 -1 -1 -1 -2 -1 -1 -1 -1 -1 -1 -1 -2 -2 -2 -2 -2 -3 -4 -3 -4 -4 -4 -4 -5 -5 -6 -6 -6 -6 -6 -7 -7 -7 -7 -7 -7

GFSCGP_700_temp_279.txt.gz
Temp
3 3 4 4 4 4 4 4 4 4 4 5 5 6 6 5 6 5 4 3 3 3 2 2 1 0 0 -0 -1 -0 -1 -1 -0 0 1 1 2 2 2 2 2 1 2 2
3 4 4 4 4 3 4 4 4 4 4 4 5 7 7 7 6 5 4 3 3 2 2 1 0 -0 -1 -1 -1 -1 -1 -1 0 0 1 2 2 2 2 2 2 1 0 1
3 3 3 3 3 3 3 3 3 3 3 4 4 6 7 6 6 5 4 3 2 2 1 1 -0 -1 -1 -2 -2 -1 -1 -0 0 1 1 1 1 1 1 1 1 1 1 0
2 3 3 3 3 3 2 2 2 2 2 2 2 0 6 6 5 4 3 3 2 1 1 0 -0 -1 -1 -1 -1 -1 0 0 1 1 1 1 1 1 1 0 0 0 -0 -0
3 3 3 2 2 2 2 2 2 1 0 0 -0 -1 5 5 4 4 3 2 1 1 0 -0 -1 -1 -1 -0 -0 1 0 -0 0 1 0 1 1 -0 -1 -1 -1 -1 -1 -1
1 2 2 1 1 1 1 1 1 0 -1 -5 -2 -2 4 5 4 3 3 2 1 1 0 -0 -1 -1 -1 -1 0 0 -0 -0 0 -0 -0 -0 -0 -0 -1 -1 -1 -2 -2 -2
1 1 1 1 1 1 1 0 -3 -5 -6 -6 -3 -3 5 4 4 3 2 2 1 0 -0 -1 -1 -1 -1 -0 -0 -0 -0 -0 -0 -0 -0 -1 -1 -1 -1 -1 -2 -2 -3 -3
1 -0 0 0 0 1 0 0 -1 -6 -6 -7 -3 -3 4 4 3 2 2 2 1 -0 -0 -1 -0 -0 -0 -0 -0 -0 -0 -1 -0 -0 -1 -1 -1 -1 -2 -2 -2 -3 -3 -4
1 0 0 -0 -0 -1 -1 -1 -0 -1 -6 -7 -1 1 4 4 3 2 2 1 0 -1 -1 -1 -1 -1 -0 -0 -1 -1 -1 -1 -1 -1 -1 -1 -2 -2 -2 -3 -4 -4 -4 -4
1 0 -1 -1 -2 -1 -1 -1 -2 -1 -6 -7 -4 -1 3 4 3 2 1 -0 -1 -2 -1 -1 -1 -1 -1 -1 -1 -2 -2 -1 -1 -2 -2 -2 -3 -3 -3 -4 -5 -5 -5 -5
0 0 -2 -3 -2 -0 -1 -2 -2 -1 -2 -8 -9 -0 3 3 3 1 -0 -1 -1 -1 -1 -1 -1 -1 -1 -1 -1 -2 -2 -2 -2 -2 -2 -3 -3 -3 -4 -5 -5 -6 -5 -6
-1 -1 -1 -1 -1 -1 -1 -2 -1 -1 -4 -5 -7 -2 2 3 2 1 -0 -1 0 -0 -1 -1 -1 -1 -1 -1 -2 -2 -3 -3 -3 -3 -3 -3 -3 -3 -4 -5 -6 -6 -6 -6
-2 -2 -2 -3 -3 -2 -2 -1 -1 -1 -2 -3 -6 -0 3 2 2 0 -1 -0 0 -1 -1 -1 -1 -1 -1 -2 -2 -3 -3 -3 -3 -3 -3 -4 -4 -4 -4 -4 -5 -6 -6 -6
-3 -2 -1 -2 -0 -0 -1 -1 -1 -2 -3 -2 -1 1 3 2 1 0 0 0 -0 -1 -1 -1 -2 -1 -2 -2 -2 -3 -3 -3 -3 -3 -4 -5 -4 -4 -5 -5 -5 -6 -6 -6
-4 -4 -3 -1 -1 -1 -2 -1 -1 -1 -1 -1 1 -0 3 2 1 1 0 0 0 -0 -1 -1 -2 -2 -2 -2 -3 -3 -3 -3 -3 -4 -5 -6 -5 -5 -5 -5 -5 -5 -7 -6
-5 -5 -4 -3 -2 -1 -2 -1 -2 -2 -2 -2 -0 1 3 1 1 0 -0 -0 -0 -1 -1 -1 -2 -2 -2 -2 -3 -3 -4 -4 -4 -4 -5 -6 -5 -5 -5 -6 -5 -5 -6 -6
-6 -5 -5 -6 -3 -3 -4 -1 -0 0 1 1 -0 3 1 1 1 0 -1 -1 -1 -1 -1 -2 -2 -2 -2 -3 -3 -4 -4 -4 -4 -5 -5 -5 -5 -5 -6 -6 -6 -5 -6 -6
-5 -8 -7 -5 -4 -7 -2 -0 0 0 1 1 1 2 1 1 1 -0 -1 -1 -1 -1 -1 -2 -2 -2 -2 -3 -3 -4 -4 -5 -5 -5 -5 -5 -5 -5 -6 -6 -7 -5 -5 -6
-5 -7 -7 -6 -5 -3 -0 -0 -0 -1 2 1 1 1 1 0 0 -1 -1 -1 -2 -2 -2 -2 -2 -2 -3 -3 -3 -4 -4 -5 -5 -5 -5 -5 -6 -6 -6 -7 -7 -7 -7 -6
-7 -7 -8 -8 -7 -9 -0 -0 0 -0 1 1 1 0 -0 -1 -1 -1 -1 -2 -2 -2 -2 -2 -2 -3 -3 -3 -3 -4 -4 -5 -5 -6 -5 -6 -6 -6 -6 -7 -7 -7 -8 -7
-8 -9 -8 -8 -7 -4 -0 -1 -1 -2 0 0 -0 -1 -1 -1 -1 -2 -2 -2 -3 -3 -2 -2 -2 -3 -3 -3 -3 -4 -4 -5 -5 -6 -6 -6 -6 -6 -6 -7 -7 -7 -7 -7
-4 -7 -8 -9 -9 -7 0 -2 -2 -1 -1 -1 -1 -1 -2 -1 -1 -2 -2 -2 -2 -2 -2 -2 -3 -3 -3 -3 -3 -4 -4 -5 -5 -6 -6 -6 -6 -6 -7 -7 -7 -7 -7 -7
-4 -3 -2 -2 -1 0 -0 -0 -1 -1 -2 -2 -2 -2 -2 -1 -2 -1 -2 -2 -1 -1 -2 -2 -2 -3 -3 -3 -4 -4 -4 -5 -5 -6 -6 -6 -7 -7 -7 -7 -7 -7 -7 -7
-4 -3 -3 -3 -1 -1 -1 -1 -1 -2 -2 -2 -2 -2 -2 -2 -1 -1 -1 -2 -2 -2 -2 -2 -2 -3 -3 -3 -4 -4 -4 -5 -5 -5 -6 -6 -7 -7 -7 -7 -7 -7 -7 -7
-4 -3 -3 -3 -1 -1 -1 -2 -2 -2 -2 -1 -2 -2 -2 -1 -1 -1 -1 -2 -2 -2 -2 -2 -2 -3 -3 -3 -3 -4 -4 -4 -5 -5 -6 -6 -6 -6 -7 -7 -7 -7 -7 -7
-5 -4 -3 -3 -2 -2 -2 -1 -1 -2 -2 -2 -1 -1 -2 -2 -2 -2 -1 -2 -1 -2 -2 -2 -2 -2 -3 -3 -3 -3 -4 -4 -4 -5 -5 -6 -6 -6 -6 -6 -6 -7 -7 -7

GFSCGP_700_temp_285.txt.gz
Temp
2 2 4 4 3 3 3 3 3 3 4 4 5 6 6 6 6 7 7 6 6 5 4 4 4 4 4 3 3 2 2 2 2 2 2 2 2 2 2 2 2 2 2 2
2 3 2 3 3 3 3 2 2 3 4 4 5 6 6 6 7 7 7 6 6 5 4 4 3 3 3 3 2 2 2 1 2 2 2 2 2 2 2 2 2 2 2 2
2 2 3 3 2 2 2 2 2 2 3 4 4 5 7 7 8 7 7 7 6 5 4 3 3 3 3 2 2 2 2 2 1 1 2 2 2 2 2 3 3 2 2 2
1 1 2 2 2 2 1 3 2 2 2 2 3 3 5 6 7 7 6 6 5 5 4 4 3 3 2 2 2 1 1 1 1 2 1 1 2 2 2 2 2 1 1 1
1 2 2 1 1 2 1 2 2 2 1 1 1 1 6 6 7 6 6 5 5 4 4 3 3 3 2 1 1 1 1 1 1 1 1 1 1 2 2 1 1 0 0 0
1 1 1 1 1 1 1 1 1 1 0 -1 2 1 5 5 6 6 5 4 4 4 3 3 3 2 1 1 1 1 1 0 0 0 0 1 1 1 1 0 -0 -0 -0 -0
-0 0 1 1 0 0 0 -0 -1 -0 -1 2 -1 -1 6 5 5 5 5 4 3 3 3 2 2 2 1 1 1 1 0 -0 -0 -0 0 0 0 1 1 0 -0 -0 -0 -0
-1 -1 1 0 -0 -0 0 -1 2 3 3 3 -2 -1 5 6 5 5 4 3 3 2 2 2 2 2 1 1 1 0 -0 -0 -0 -0 -0 -0 -0 -0 0 -0 -1 -1 -0 -0
-1 -1 -0 0 0 -1 -2 -1 0 -0 -2 -1 3 3 5 5 5 4 3 3 2 2 2 2 2 1 1 1 0 -0 -1 -1 -1 -1 -0 -0 -1 -1 -1 -1 -1 -1 -1 -1
-3 -2 -2 -2 -2 -1 -2 -1 -2 -1 -0 1 2 0 4 5 5 4 3 2 2 2 2 2 2 1 1 0 -0 -1 -1 -1 -1 -1 -1 -1 -1 -1 -1 -2 -1 -1 -1 -2
-3 -4 -4 -3 -3 -2 -3 -3 -1 -1 -1 2 3 4 5 5 4 3 3 3 1 1 2 2 1 1 0 -0 -0 -1 -1 -2 -2 -2 -2 -2 -2 -2 -2 -2 -2 -1 -2 -3
-3 -4 -3 -2 -2 -2 -4 -3 -2 -0 -2 -2 -2 2 4 4 4 3 2 1 1 2 1 1 1 1 0 -0 -1 -1 -2 -2 -2 -2 -3 -3 -2 -2 -2 -2 -2 -2 -2 -3
-5 -5 -3 -2 -4 -4 -4 -2 -2 -1 -1 -3 -0 2 4 4 4 2 2 1 1 1 1 1 1 1 0 -0 -1 -2 -2 -2 -2 -2 -3 -3 -3 -3 -3 -3 -3 -3 -3 -3
-5 -5 -3 -1 -2 -2 -3 -1 -1 -2 -3 -1 -0 1 3 3 3 2 1 1 1 1 1 1 0 0 0 -1 -1 -2 -2 -2 -2 -3 -3 -3 -3 -3 -4 -4 -4 -4 -4 -4
-6 -6 -5 -3 -2 -3 -3 -2 -2 -2 -2 -2 1 1 2 2 1 1 1 1 1 1 1 0 0 0 -0 -1 -2 -2 -2 -2 -3 -3 -4 -4 -4 -4 -4 -4 -4 -5 -4 -3
-6 -7 -5 -5 -4 -5 -4 -3 -3 -3 -3 -2 -1 1 1 2 2 1 1 1 1 1 1 0 0 0 -0 -1 -2 -2 -2 -2 -3 -4 -4 -4 -4 -4 -4 -4 -4 -5 -4 -4
-5 -6 -7 -6 -5 -6 -6 -3 -3 -2 -1 -1 -1 3 2 2 1 1 -0 1 1 0 0 -0 -0 -0 -0 -1 -2 -2 -2 -2 -3 -3 -4 -4 -4 -4 -4 -4 -4 -5 -5 -4
-6 -6 -6 -6 -6 -4 -2 -2 -1 -1 0 0 1 1 1 1 1 -0 0 1 0 -0 0 -0 -0 -0 -0 -1 -2 -2 -2 -2 -3 -3 -4 -4 -4 -5 -5 -4 -4 -5 -5 -5
-7 -6 -6 -7 -6 -3 -2 -1 -1 -1 -0 0 0 1 1 0 0 1 1 0 0 0 -0 -0 -0 -1 -1 -1 -2 -2 -2 -2 -3 -3 -4 -4 -5 -5 -5 -5 -4 -5 -6 -6
-8 -7 -7 -7 -5 -4 -1 -2 -2 -2 -2 1 1 1 1 -0 0 -0 -0 0 -0 -0 -0 -0 -0 -1 -1 -1 -2 -2 -2 -2 -3 -3 -4 -4 -4 -4 -4 -4 -4 -4 -5 -6
-8 -8 -8 -7 -6 -4 -1 -2 -2 -4 -1 0 1 1 0 -1 -1 -1 -0 -0 -0 -0 -1 -1 -1 -1 -1 -1 -2 -2 -2 -2 -3 -4 -4 -4 -4 -4 -4 -4 -4 -4 -5 -5
-7 -8 -8 -8 -8 -6 -1 -1 -2 -2 -2 -1 -1 -1 -1 -1 -1 -1 -0 -1 -1 -1 -1 -1 -1 -1 -1 -1 -2 -2 -2 -2 -3 -3 -3 -4 -4 -5 -4 -4 -4 -5 -6 -6
-7 -5 -5 -5 -3 -1 -1 -1 -2 -4 -3 -2 -2 -1 -1 -1 -1 -1 -1 -1 -1 -0 -1 -1 -1 -1 -2 -2 -1 -2 -2 -2 -3 -3 -3 -3 -4 -4 -4 -4 -4 -4 -5 -5
-6 -5 -5 -4 -3 -2 -2 -3 -3 -2 -2 -2 -2 -2 -2 -2 -2 -2 -1 -1 -1 -1 -1 -1 -1 -2 -2 -2 -2 -2 -2 -2 -3 -3 -3 -3 -3 -3 -3 -4 -4 -4 -4 -4
-7 -5 -5 -4 -3 -3 -2 -2 -3 -3 -2 -3 -3 -3 -3 -2 -2 -2 -1 -1 -1 -1 -1 -1 -1 -1 -2 -2 -2 -2 -2 -2 -3 -3 -3 -3 -3 -3 -4 -4 -4 -4 -5 -5
-7 -6 -5 -4 -3 -3 -3 -3 -3 -2 -3 -3 -3 -3 -3 -3 -2 -2 -1 -1 -1 -1 -1 -0 -1 -1 -2 -1 -1 -2 -2 -2 -2 -3 -3 -3 -3 -4 -4 -4 -4 -5 -5 -5

GFSCGP_700_temp_291.txt.gz
Temp
1 0 2 3 2 1 1 1 2 3 3 3 4 5 6 5 6 6 6 6 6 6 6 6 5 5 5 4 4 4 4 3 3 3 4 3 3 3 3 3 3 3 3 3
1 2 2 1 1 0 1 1 2 2 3 3 3 5 6 6 6 7 6 6 6 6 7 6 5 5 4 4 4 3 3 3 3 3 4 4 4 4 3 3 3 3 3 3
0 1 1 1 1 1 1 1 2 2 2 2 3 4 6 6 7 7 7 7 6 6 7 7 5 4 4 4 3 3 3 3 3 3 3 3 3 3 3 2 2 2 2 2
-1 0 0 0 0 0 -0 1 1 1 1 1 1 -0 5 6 6 7 7 7 6 6 7 6 5 4 4 4 3 3 3 3 3 3 3 3 3 3 3 2 2 2 2 2
-0 1 1 0 0 0 0 1 1 1 0 -0 1 0 4 6 7 7 7 7 6 6 6 6 5 4 4 3 3 3 3 3 3 3 2 2 2 2 2 2 2 1 1 1
-1 -1 0 0 -0 -1 -0 0 0 -0 -1 -5 2 2 3 6 7 7 6 6 6 6 6 5 4 4 3 3 3 3 2 2 2 2 2 2 2 1 1 1 1 1 1 0
-2 -2 -1 -1 -1 -2 -2 -1 -4 -5 -7 -7 2 -1 3 6 6 6 6 6 6 5 5 4 4 3 3 3 2 2 2 2 2 2 1 1 1 1 1 1 1 0 -0 -1
-2 -3 -1 -1 -1 -0 -1 -1 -0 -5 -6 -4 -1 -1 5 6 5 5 6 6 5 5 4 4 3 3 3 2 2 2 2 1 1 1 1 1 1 1 1 1 -0 -1 -1 -1
-2 -3 -2 -2 -1 -1 -2 -2 -0 -1 -3 -4 1 3 5 6 6 6 5 5 5 4 3 3 3 2 2 2 2 2 2 1 1 1 1 0 0 0 0 -0 -1 -1 -1 -1
-3 -3 -3 -4 -3 -3 -2 -2 -2 -2 -6 -7 -2 1 4 6 6 6 5 4 4 3 3 2 2 2 2 2 2 1 1 1 1 0 0 0 0 0 -0 -1 -2 -1 -1 -1
-4 -4 -5 -4 -4 -2 -3 -3 -1 -2 -1 -7 -6 1 4 5 5 5 4 4 4 3 3 2 2 2 2 2 1 1 1 1 1 0 0 -0 -0 -0 -1 -1 -2 -1 -2 -2
-4 -4 -5 -4 -5 -4 -4 -3 -2 -4 -2 -2 -3 1 4 4 5 5 4 4 3 2 2 2 2 2 2 1 1 1 1 1 0 0 -0 -0 -0 -1 -1 -1 -1 -2 -2 -2
-3 -4 -5 -6 -6 -6 -5 -4 -4 -2 -2 -2 -4 -0 3 4 4 4 3 3 2 2 2 2 2 2 2 1 1 1 1 0 0 0 -0 -0 -0 -1 -1 -1 -2 -2 -3 -3
-4 -4 -3 -4 -2 -3 -5 -4 -3 -3 -3 -4 -2 -0 2 3 3 4 3 3 2 2 1 2 2 2 2 1 1 1 0 0 0 -0 -0 -0 -1 -1 -1 -2 -2 -2 -3 -3
-6 -5 -4 -4 -4 -4 -3 -3 -4 -3 -3 -3 -2 -2 1 2 2 2 2 2 1 1 1 1 1 1 1 1 0 0 0 0 0 -0 -0 -0 -1 -1 -2 -2 -2 -2 -3 -4
-6 -6 -6 -5 -5 -4 -5 -4 -4 -5 -4 -3 -3 -1 0 1 2 1 2 1 1 1 1 1 1 1 1 1 0 0 0 0 -0 -0 -1 -1 -1 -1 -2 -2 -1 -1 -2 -3
-7 -6 -7 -6 -6 -6 -6 -2 -2 -3 -3 -2 -3 -1 -1 0 2 2 2 1 1 1 1 1 1 1 1 1 0 -0 0 -0 -0 -0 -1 -1 -1 -1 -2 -2 -0 0 -1 -2
-8 -7 -7 -6 -7 -9 -2 -2 -1 -2 -1 -2 -2 -1 0 0 0 -0 -0 -0 1 1 1 1 1 1 1 0 0 -0 -0 -0 -0 -0 -1 -1 -1 -1 -2 -2 -1 0 0 -1
-8 -7 -7 -7 -7 -4 -2 -2 -2 -1 -0 -0 -1 -1 -1 -1 -1 -0 -0 0 0 0 1 1 1 0 0 0 0 -0 -0 -0 -1 -1 -1 -1 -2 -1 -1 -2 -1 -1 -0 -1
-9 -8 -7 -7 -7 -9 -3 -2 -1 -2 -1 0 0 -0 -1 -2 -2 0 -0 1 1 1 0 0 0 0 -0 -0 0 -0 -1 -1 -1 -1 -1 -1 -2 -1 -2 -2 -2 -1 -1 -1
-9 -8 -8 -7 -7 -5 -3 -3 -3 -3 -1 -1 -1 -0 -0 -1 -1 -1 -0 -0 -0 -0 -0 -0 0 -0 -0 -0 -1 -1 -1 -1 -1 -1 -1 -2 -2 -2 -2 -2 -1 -1 -2 -1
-9 -8 -8 -8 -7 -8 -4 -3 -3 -2 -2 -2 -2 -1 -0 -0 -1 -2 -2 -1 -1 -1 -1 -1 -1 -1 -0 -1 -1 -1 -2 -2 -1 -2 -1 -2 -2 -2 -2 -2 -2 -2 -2 -2
-9 -9 -7 -7 -6 -5 -4 -3 -2 -2 -3 -3 -3 -2 -2 -2 -3 -3 -2 -2 -2 -1 -1 -1 -1 -1 -1 -1 -1 -2 -3 -2 -2 -2 -2 -2 -2 -2 -3 -3 -3 -2 -2 -2
-11 -10 -9 -7 -6 -6 -5 -4 -4 -3 -3 -4 -3 -4 -4 -4 -4 -4 -4 -4 -2 -2 -1 -1 -1 -1 -1 -1 -1 -2 -2 -2 -2 -2 -2 -2 -2 -2 -2 -2 -2 -2 -3 -3
-14 -12 -12 -9 -7 -6 -5 -4 -4 -4 -4 -4 -4 -4 -4 -4 -4 -4 -4 -4 -4 -4 -2 -2 -1 -1 -2 -1 -1 -2 -2 -2 -2 -2 -3 -2 -2 -2 -3 -3 -3 -3 -3 -4
-14 -14 -13 -11 -9 -8 -6 -6 -5 -4 -4 -3 -4 -4 -5 -5 -6 -5 -4 -3 -3 -2 -2 -2 -1 -1 -1 -1 -1 -1 -1 -1 -2 -2 -2 -3 -3 -3 -2 -3 -4 -4 -4 -4